STARLINK-36142, 66981

Orbit data source: Space-Track

STARLINK-36142, 66981 is a payload satellite owned by SpaceX/Seattle (US) in LEO that was launched on Mon, 08 Dec 2025 UTC via an FALCON 9 launch vehicle from the Air Force Eastern Test Range (AFETR). Payload-class satellites include a variety of spacecraft equipped with specific instruments for various scientific and technological missions. These include communications satellites like Starlink; space stations such as the ISS; scientific satellites like the Hubble; Earth observation satellites from companies like Planet Labs, Umbra, and HawkEye 360; GPS; miniature CubeSats for education and research; and military/defense satellites.

Loading next visibility...
Identifier
66981, 2025-288Y
Orbit
LEO
Country
Flag of USUS
Related business
Manufacturer
SpaceX/Seattle
Mission
Operational Commercial Communications
Bus & Motor
STARLINK V2MO, Unknown motor
Mass
575 kg wet, ~530 kg dry
Launch date (UTC)
2025-12-08 (5 months ago)
Launch vehicle
FALCON 9
Launch site
Air Force Eastern Test Range (AFETR)
Object type
Payload
Rocket body
Debris
Shape & HBR
Box + 2 Pan, 17.7 m
Radar Cross Section
36.964 m²

Expand to show TLE details & history
Last TLE update: 11 hours ago

TLE from 11 hours ago
0 STARLINK-36142
1 66981U 25288Y   26130.00712253  .00015416  00000-0  56838-3 0  9997
2 66981  43.0027  37.2913 0001684 262.2482  97.8178 15.27590921 24667
Epoch: 2026-05-10T00:10Z
TLE epoch observation values (Epoch: 2026-05-10T00:10:15.386Z)
Latitude
-0.00006°
Longitude
166.91074°
Altitude
482.949 km
Speed
7.626 km/s
True Right ascension
02h 29m 09s
True Declination
0° 00' 00"
Sunlit
Object was in daylight at epoch
Visualization orbit readout
Latitude
Unknown
Longitude
Unknown
Altitude
Unknown
Speed
Unknown
Apparent Right ascension
Unknown
Apparent Declination
Unknown
Sunlit
N/A
Visualization observer readout
Local Sidereal Time
19:49:15
Azimuth
Unknown
Elevation
Unknown
Doppler factor
Unknown
Orbital elements
Apogee altitude
486.117 km
Perigee altitude
483.805 km
Semi-major axis
6,863.098 km
Eccentricity
0.00017
Inclination
43.0027°
RAAN
37.2913°
Arg. of periapsis
262.2482°
True anomaly
97.83692°
Mean anomaly
97.8178°
Eccentric anomaly
97.82736°
Mean motion
3.81736 °/min
Orbital period
94.31 mins
BSTAR
0.00056838
Loading maneuver chart data...
Computing Atmospheric mass density...
Loading historical data...
Loading historical data...
Loading historical data...
Loading historical data...
Loading historical data...
Loading historical data...
Loading historical data...

Documentation

Showing up to 5 results
|